Location: ?ejkovice
(49.0137°N, 14.3821°E)
Time: 20:36:33
(UTC+00:00)

Cosmos 1346 Rocket - Pass Details

Date: 23 May 2024
Orbit: 508 x 521 km, 81.2° (Epoch: 20 June)

Event Time Altitude Azimuth Distance (km) Brightness Sun altitude
Rises 00:40:01 0° 339° (NNW) 2,661 7.0 -16.8°
Reaches altitude 10° 00:42:21 10° 328° (NNW) 1,769 5.8 -16.7°
Maximum altitude 00:45:43 29° 268° (W) 990 3.8 -16.4°
Enters shadow 00:46:28 27° 246° (WSW) 1,040 3.8 -16.4°
